When you browse on this site, cookies collect data to enhance your experience and personalize the content and advertising you see.
Visit our Privacy Policy to learn more. By continuing to use the site, you agree to this use of cookies and data.
  • en Suisse
  • Liste des pays
  • À 7 jours
  • Température de l'eau
  • Carte météo
  • Widgets météo
  • user-avatar
    Se connecter

    Météo par heure à Vitebsk

    Ce jour, 27 Février, Jeudi

    Heure Température Précipitation Vent Pression Humidité
    00:00 +2°C° 0 mm 2 m/s 730 mmHg 89%
    01:00 +2°C° 0 mm 2 m/s 730 mmHg 90%
    02:00 +2°C° 0 mm 2 m/s 729 mmHg 93%
    03:00 +2°C° 0.3 mm 2 m/s 729 mmHg 94%
    04:00 +2°C° 0.3 mm 2 m/s 729 mmHg 95%
    05:00 +2°C° 0.3 mm 2 m/s 728 mmHg 96%
    06:00 +2°C° 1.1 mm 2 m/s 728 mmHg 97%
    07:00 +3°C° 1.1 mm 1 m/s 728 mmHg 97%
    08:00 +3°C° 1.1 mm 1 m/s 728 mmHg 97%
    09:00 +2°C° 0.6 mm 2 m/s 728 mmHg 97%
    10:00 +2°C° 0.6 mm 2 m/s 728 mmHg 97%
    11:00 +1°C° 0.6 mm 3 m/s 728 mmHg 96%
    12:00 0°C° 0.1 mm 4 m/s 728 mmHg 93%
    13:00 0°C° 0.1 mm 5 m/s 728 mmHg 90%
    14:00 -1°C° 0.1 mm 6 m/s 729 mmHg 86%
    15:00 -1°C° 0 mm 6 m/s 729 mmHg 82%
    16:00 0°C° 0 mm 5 m/s 729 mmHg 77%
    17:00 0°C° 0 mm 5 m/s 730 mmHg 73%
    18:00 0°C° 0 mm 4 m/s 730 mmHg 75%
    19:00 -1°C° 0 mm 4 m/s 730 mmHg 78%
    20:00 0°C° 0 mm 3 m/s 731 mmHg 80%
    21:00 -1°C° 0 mm 3 m/s 731 mmHg 83%
    22:00 -1°C° 0 mm 3 m/s 731 mmHg 86%
    23:00 -2°C° 0 mm 3 m/s 731 mmHg 88%

    Demain, 28 Février, Vendredi

    Heure Température Précipitation Vent Pression Humidité
    00:00 -2°C° 0 mm 3 m/s 731 mmHg 88%
    01:00 -2°C° 0 mm 3 m/s 731 mmHg 87%
    02:00 -2°C° 0 mm 3 m/s 731 mmHg 87%
    03:00 -2°C° 0 mm 3 m/s 731 mmHg 86%
    04:00 -4°C° 0 mm 3 m/s 731 mmHg 84%
    05:00 -4°C° 0 mm 3 m/s 731 mmHg 82%
    06:00 -3°C° 0 mm 4 m/s 731 mmHg 81%
    07:00 -3°C° 0 mm 4 m/s 732 mmHg 80%
    08:00 -3°C° 0 mm 4 m/s 732 mmHg 79%
    09:00 -4°C° 0 mm 5 m/s 732 mmHg 78%
    10:00 -2°C° 0 mm 5 m/s 732 mmHg 76%
    11:00 -1°C° 0 mm 5 m/s 732 mmHg 74%
    12:00 -2°C° 0 mm 6 m/s 733 mmHg 74%
    13:00 -2°C° 0 mm 6 m/s 733 mmHg 73%
    14:00 -2°C° 0 mm 6 m/s 734 mmHg 72%
    15:00 -2°C° 0 mm 6 m/s 734 mmHg 74%
    16:00 -1°C° 0 mm 5 m/s 734 mmHg 76%
    17:00 -2°C° 0 mm 5 m/s 735 mmHg 78%
    18:00 -2°C° 0 mm 4 m/s 735 mmHg 78%
    19:00 -2°C° 0 mm 4 m/s 736 mmHg 77%
    20:00 -3°C° 0 mm 4 m/s 736 mmHg 77%
    21:00 -3°C° 0 mm 4 m/s 736 mmHg 81%
    22:00 -3°C° 0 mm 4 m/s 737 mmHg 84%
    23:00 -3°C° 0 mm 4 m/s 737 mmHg 88%

    Après-demain, 29 Février, Samedi

    Heure Température Précipitation Vent Pression Humidité
    00:00 -3°C° 0 mm 4 m/s 737 mmHg 86%
    01:00 -5°C° 0 mm 5 m/s 738 mmHg 85%
    02:00 -5°C° 0 mm 5 m/s 738 mmHg 83%
    03:00 -5°C° 0 mm 5 m/s 738 mmHg 82%
    04:00 -4°C° 0 mm 4 m/s 739 mmHg 81%
    05:00 -5°C° 0 mm 4 m/s 739 mmHg 80%
    06:00 -5°C° 0 mm 4 m/s 740 mmHg 79%
    07:00 -4°C° 0 mm 3 m/s 740 mmHg 79%
    08:00 -4°C° 0 mm 3 m/s 740 mmHg 78%
    09:00 -2°C° 0 mm 3 m/s 741 mmHg 75%
    10:00 -3°C° 0 mm 4 m/s 741 mmHg 73%
    11:00 -2°C° 0 mm 4 m/s 741 mmHg 71%
    12:00 -2°C° 0 mm 4 m/s 741 mmHg 69%
    13:00 -1°C° 0 mm 4 m/s 742 mmHg 67%
    14:00 -1°C° 0 mm 4 m/s 742 mmHg 65%
    15:00 -1°C° 0 mm 4 m/s 742 mmHg 68%
    16:00 0°C° 0 mm 3 m/s 742 mmHg 71%
    17:00 -1°C° 0 mm 2 m/s 742 mmHg 74%
    18:00 -1°C° 0 mm 2 m/s 743 mmHg 77%
    19:00 0°C° 0 mm 1 m/s 743 mmHg 80%
    20:00 0°C° 0 mm 1 m/s 743 mmHg 83%
    21:00 -2°C° 0 mm 2 m/s 744 mmHg 85%
    22:00 -2°C° 0 mm 2 m/s 744 mmHg 87%
    23:00 -2°C° 0 mm 3 m/s 744 mmHg 90%

    1 Mars, Dimanche

    Heure Température Précipitation Vent Pression Humidité
    00:00 -2°C° 0 mm 3 m/s 744 mmHg 89%
    01:00 -2°C° 0 mm 3 m/s 744 mmHg 88%
    02:00 -3°C° 0 mm 4 m/s 744 mmHg 87%
    03:00 -3°C° 0 mm 4 m/s 744 mmHg 84%
    04:00 -4°C° 0 mm 5 m/s 743 mmHg 80%
    05:00 -4°C° 0 mm 5 m/s 743 mmHg 77%
    06:00 -3°C° 0 mm 6 m/s 743 mmHg 76%
    07:00 -3°C° 0 mm 6 m/s 743 mmHg 75%
    08:00 -2°C° 0 mm 7 m/s 742 mmHg 75%
    09:00 -1°C° 0 mm 7 m/s 742 mmHg 68%
    10:00 0°C° 0 mm 8 m/s 742 mmHg 62%
    11:00 +1°C° 0 mm 8 m/s 742 mmHg 56%
    12:00 +1°C° 0 mm 8 m/s 741 mmHg 55%
    13:00 +1°C° 0 mm 8 m/s 741 mmHg 53%
    14:00 +2°C° 0 mm 8 m/s 741 mmHg 52%
    15:00 +2°C° 0 mm 7 m/s 740 mmHg 55%
    16:00 +2°C° 0 mm 6 m/s 740 mmHg 59%
    17:00 +1°C° 0 mm 6 m/s 740 mmHg 62%
    18:00 +1°C° 0 mm 6 m/s 740 mmHg 72%
    19:00 -1°C° 0 mm 7 m/s 739 mmHg 82%
    20:00 -1°C° 0 mm 7 m/s 739 mmHg 93%
    21:00 -1°C° 0.5 mm 7 m/s 739 mmHg 94%
    22:00 -1°C° 0.5 mm 6 m/s 739 mmHg 95%
    23:00 -1°C° 0.5 mm 6 m/s 739 mmHg 96%

    2 Mars, Lundi

    Heure Température Précipitation Vent Pression Humidité
    00:00 0°C° 0.5 mm 5 m/s 739 mmHg 97%
    01:00 0°C° 0.5 mm 5 m/s 739 mmHg 97%
    02:00 0°C° 0.5 mm 5 m/s 739 mmHg 97%
    03:00 +1°C° 0.1 mm 5 m/s 739 mmHg 95%
    04:00 +1°C° 0.1 mm 5 m/s 739 mmHg 94%
    05:00 +1°C° 0.1 mm 5 m/s 739 mmHg 93%
    06:00 0°C° 0 mm 4 m/s 739 mmHg 92%
    07:00 0°C° 0 mm 4 m/s 739 mmHg 91%
    08:00 0°C° 0 mm 4 m/s 740 mmHg 90%
    09:00 +1°C° 0 mm 4 m/s 740 mmHg 86%
    10:00 +2°C° 0 mm 5 m/s 740 mmHg 81%
    11:00 +3°C° 0 mm 5 m/s 740 mmHg 77%
    12:00 +3°C° 0 mm 5 m/s 739 mmHg 76%
    13:00 +5°C° 0 mm 5 m/s 739 mmHg 75%
    14:00 +4°C° 0 mm 6 m/s 739 mmHg 75%
    15:00 +4°C° 0.1 mm 6 m/s 739 mmHg 78%
    16:00 +3°C° 0.1 mm 6 m/s 738 mmHg 82%
    17:00 +2°C° 0.1 mm 6 m/s 738 mmHg 86%
    18:00 +2°C° 0 mm 6 m/s 738 mmHg 85%
    19:00 +2°C° 0 mm 6 m/s 738 mmHg 83%
    20:00 +3°C° 0 mm 6 m/s 737 mmHg 82%
    21:00 +2°C° 0.2 mm 6 m/s 737 mmHg 86%
    22:00 +2°C° 0.2 mm 7 m/s 737 mmHg 89%
    23:00 +2°C° 0.2 mm 7 m/s 737 mmHg 93%

    3 Mars, Mardi

    Heure Température Précipitation Vent Pression Humidité
    00:00 +2°C° 0.2 mm 7 m/s 736 mmHg 92%
    01:00 +2°C° 0.2 mm 7 m/s 736 mmHg 92%
    02:00 +2°C° 0.2 mm 7 m/s 735 mmHg 91%
    03:00 +2°C° 0.5 mm 7 m/s 735 mmHg 91%
    04:00 +2°C° 0.5 mm 7 m/s 735 mmHg 92%
    05:00 +2°C° 0.5 mm 7 m/s 734 mmHg 92%
    06:00 +2°C° 1 mm 6 m/s 734 mmHg 92%
    07:00 +2°C° 1 mm 6 m/s 735 mmHg 92%
    08:00 +2°C° 1 mm 5 m/s 735 mmHg 93%
    09:00 +3°C° 0.1 mm 5 m/s 736 mmHg 90%
    10:00 +3°C° 0.1 mm 5 m/s 736 mmHg 87%
    11:00 +5°C° 0.1 mm 5 m/s 737 mmHg 84%
    12:00 +5°C° 0 mm 4 m/s 738 mmHg 76%
    13:00 +6°C° 0 mm 4 m/s 739 mmHg 69%
    14:00 +6°C° 0 mm 4 m/s 739 mmHg 61%
    15:00 +7°C° 0 mm 3 m/s 740 mmHg 64%
    16:00 +5°C° 0 mm 3 m/s 741 mmHg 66%
    17:00 +6°C° 0 mm 2 m/s 741 mmHg 69%
    18:00 +5°C° 0 mm 2 m/s 741 mmHg 72%
    19:00 +4°C° 0 mm 2 m/s 742 mmHg 75%
    20:00 +4°C° 0 mm 2 m/s 742 mmHg 78%
    21:00 +3°C° 0 mm 2 m/s 743 mmHg 79%
    22:00 +3°C° 0 mm 2 m/s 743 mmHg 80%
    23:00 +3°C° 0 mm 2 m/s 743 mmHg 80%
    Voir plus